Location: El Álamo
(40.2307°N, 3.9945°W)
Time: 03:57:35
(UTC+00:00)

Cosmos 1980 Rocket - Pass Details

Date: 19 May 2025
Orbit: 829 x 848 km, 71.0° (Epoch: 23 June)

Event Time Altitude Azimuth Distance (km) Brightness Sun altitude
Rises 20:47:32 0° 351° (N) 3,380 6.2 -13.2°
Reaches altitude 10° 20:51:04 10° 13° (NNE) 2,443 5.0 -13.7°
Maximum altitude 20:54:19 16° 49° (NE) 2,075 4.2 -14.2°
Drops below altitude 10° 20:57:34 10° 85° (E) 2,440 4.2 -14.6°
Enters shadow 20:57:45 10° 87° (E) 2,479 4.2 -14.7°
